Regional Weather Roundup
Issued by NWS Jackson, KY

Home | Current Version | Previous Version | Text Only | Print | Product List | Glossary Off
Versions: 1 2 3 4 5 6 7 8 9 10 11 12 13 14 15 16 17 18 19 20 21 22 23 24 25 26 27 28 29 30 31 32 33 34 35 36 37 38 39 40 41 42 43 44 45 46 47 48 49 50

000
ASUS43 KJKL 302310
RWRJKL

EAST KENTUCKY HOURLY WEATHER ROUNDUP
NATIONAL WEATHER SERVICE JACKSON KY
700 PM EDT TUE AUG 30 2016

NOTE: "FAIR" INDICATES FEW OR NO CLOUDS BELOW 12,000 FEET WITH
NO SIGNIFICANT WEATHER AND/OR OBSTRUCTIONS TO VISIBILITY.

* THESE REPORTS ARE NOT UNDER NWS QUALITY CONTROL AND MAY NOT
  REPORT WEATHER SUCH AS PRECIPITATION AND FOG.

KYZ079-080-083-085-087-088-110-112-115-119-120-310000
...EASTERN KENTUCKY...

CITY           SKY/WX    TMP DP  RH WIND       PRES   REMARKS
JACKSON        CLOUDY    84  72  67 CALM      30.07F
LONDON         CLOUDY    83  69  62 S6        30.06S THUNDER
SOMERSET*      SUNNY     82  68  61 CALM      30.05S
MONTICELLO*    MOSUNNY  N/A N/A N/A W10       30.06F
WILLIAMSBURG*  CLOUDY    82  72  69 NE8       30.06R
MIDDLESBORO*   MOSUNNY   83  68  59 NE6       30.07S
HARLAN APT*    MOCLDY    75  66  73 CALM      30.09F
PIKE CO APT*     N/A     79  69  72 S5        30.09S THUNDER
BIG SANDY APT* CLEAR     85  69  59 CALM      30.06F
MOREHEAD APT*  CLEAR     86  64  48 CALM      30.07S
ASHLAND*       SUNNY     86  68  54 N3        30.00F
$$

KYZ035-036-041-042-044-050-067-078-099-310000
...CENTRAL KENTUCKY...

CITY           SKY/WX    TMP DP  RH WIND       PRES   REMARKS
MT STERLING*   SUNNY     86  64  48 NE5       30.06F
FLEMING/MASON* SUNNY     88  60  38 NE3       30.06S
DANVILLE*      SUNNY     86  68  54 E5        30.05F
LEXINGTON      SUNNY     88  66  48 N6        30.05S HX  90
FRANKFORT      SUNNY     90  66  45 N3        30.03F HX  92
LOUISVILLE     MOSUNNY   90  66  45 N3        30.00F HX  92
LEBANON*         N/A     88  68  51 NW3       30.04S HX  91
GLASGOW*       SUNNY     87  71  58 CALM      30.02F HX  93
BOWLING GREEN  SUNNY     91  71  51 CALM      30.01F HX  97
$$

KYZ091>093-OHZ055-061-077-WVZ005-015-034-035-042-310000
...SOUTHERN OHIO/WEST VIRGINIA...

CITY           SKY/WX    TMP DP  RH WIND       PRES   REMARKS
COVINGTON      MOSUNNY   85  67  54 S5        30.04F
COLUMBUS       MOSUNNY   85  59  41 S7        30.05S
DAYTON         MOSUNNY   82  63  52 SE9       30.07S
WILMINGTON     SUNNY     85  66  53 CALM      30.06F
HUNTINGTON     SUNNY     88  59  37 NE5       30.03F
CHARLESTON     MOSUNNY   88  58  36 N5        30.04F
PINEVILLE*     CLOUDY    73  69  85 MISG      30.14F
BECKLEY        PTSUNNY   78  66  66 CALM      30.14F
BLUEFIELD      MOSUNNY   76  66  71 W6        30.16F
LOGAN CO APT*    N/A     81  70  69 CALM      30.07F
$$

VAZ002-007-008-TNZ017-027-036-066-071-310000
...SOUTHWEST VIRGINIA/EAST TENNESSEE...

CITY           SKY/WX    TMP DP  RH WIND       PRES   REMARKS
WISE*          PTSUNNY   79  57  47 CALM      30.16S
JONESVILLE*      N/A     82  68  61 CALM      30.08S
ABINGDON*      CLOUDY    81  66  60 N5        30.10S
BRISTOL        MOSUNNY   85  67  54 S6        30.06F
MORRISTOWN*    PTCLDY    90  64  43 NE9       30.03F HX  91
SEVIERVILLE*     N/A     90  64  43 SW9       30.01S HX  91
KNOXVILLE      MOSUNNY   90  65  43 SE10      30.00F HX  92
OAK RIDGE      SUNNY     92  64  39 CALM      30.03F HX  93
CROSSVILLE     SUNNY     83  70  64 N5        30.09F
NASHVILLE      MOSUNNY   91  66  43 NE6       30.01F HX  93
$$

...KEY TO REMARKS...
VSB - VISIBILITY IN MILES
WCI - WIND CHILL INDEX
HX  - HEAT INDEX

$$



USA.gov is the U.S. government's official web portal to all federal, state and local government web resources and services.